Content
SEND FEEDBACK

Daily
Averages
Monthly
Summary
United States of America

ASATDAS, GUAM


Home > North America > United States > Guam
Elevation: 612 feet     Latitude: 13 35N     Longitude: 144 56E

WEATHER
 
SELECT A DAY
Number of Records: 215,616;   Date Range: 1/1/95 - 12/21/14
 
SHARE

PRINT THIS DATA

[ ← Previous Day ]
WEATHER ALMANAC - APRIL 26, 2013
[ Next Day → ]
[ °C ]   °F
Weather ElementAverageHighLow
Temperature85.1 °F90 °F (12:54 pm)80.1 °F (2:54 am)
Dewpoint74.9 °F77 °F (2:30 am)73.4 °F (11:01 am)
Humidity72 %89 % (2:30 am)59 % (12:54 pm)
Barometer29.86 in29.91 in (10:44 am)29.80 in (4:54 pm)
Wind Speed10.2 mph17.3 mph (3:54 pm)
Wind Gust23 mph (3:54 pm)
Weather ElementAverage
Visibility9.7 mi
Wind DirectionE (86.1 °)

Weather ElementTotal
Precipitation0.04 in
Cooling Degree Days20.1 (Base 65)
Growing Degree Days35.1 (Base 50)
Averaged from 31 records on April 26, 2013
WEATHER CONDITIONS BREAKOUT
WIND DIRECTION BREAKOUT
WEATHER BY HOUR - APRIL 26, 2013
[ °C ]   °F
Local TimeTemperatureDewpointHumidityBarometerVisibilityWind DirectionWind SpeedGust SpeedPrecipitationEventsConditions
1:54 AM81.0 °F75.9 °F85 %29.86 in10.0 miCalm0.00 inMostly Cloudy
2:11 AM80.6 °F75.2 °F84 %29.88 in8.0 miENE (60°)6.9 mphMostly Cloudy
2:30 AM80.6 °F77.0 °F89 %29.87 in10.0 miNE (50°)6.9 mph0.00 inScattered Clouds
2:54 AM80.1 °F75.9 °F87 %29.85 in10.0 miENE (60°)6.9 mph0.00 inClear
3:54 AM81.0 °F75.9 °F85 %29.83 in10.0 miEast (90°)5.8 mphScattered Clouds
4:54 AM82.0 °F75.0 °F79 %29.84 in10.0 miESE (110°)6.9 mphPartly Cloudy
5:54 AM81.0 °F75.0 °F82 %29.86 in10.0 miESE (110°)4.6 mphPartly Cloudy
6:54 AM82.9 °F73.9 °F74 %29.87 in10.0 miEast (90°)6.9 mphPartly Cloudy
7:54 AM84.0 °F75.0 °F74 %29.89 in10.0 miEast (100°)9.2 mphPartly Cloudy
8:54 AM86.0 °F75.0 °F70 %29.90 in10.0 miEast (90°)11.5 mphScattered Clouds
9:54 AM87.1 °F73.9 °F65 %29.90 in10.0 miESE (110°)15.0 mphPartly Cloudy
10:44 AM87.8 °F75.2 °F66 %29.91 in10.0 miESE (110°)12.7 mph20.7 mphMostly Cloudy
10:54 AM88.0 °F75.0 °F65 %29.88 in10.0 miEast (100°)11.5 mphMostly Cloudy
11:01 AM87.8 °F73.4 °F62 %29.91 in10.0 miEast (100°)13.8 mph20.7 mphScattered Clouds
11:54 AM89.1 °F75.0 °F63 %29.86 in10.0 miEast (90°)15.0 mph19.6 mphScattered Clouds
12:54 PM90.0 °F73.9 °F59 %29.84 in10.0 miEast (90°)12.7 mph21.9 mphScattered Clouds
1:19 PM87.8 °F73.4 °F62 %29.86 in10.0 miESE (120°)11.5 mph20.7 mphMostly Cloudy
1:54 PM89.1 °F73.9 °F61 %29.83 in10.0 miEast (80°)12.7 mphMostly Cloudy
2:28 PM87.8 °F75.2 °F66 %29.84 in10.0 miEast (100°)13.8 mphScattered Clouds
2:39 PM87.8 °F73.4 °F62 %29.84 in10.0 miEast (90°)11.5 mphMostly Cloudy
2:54 PM89.1 °F73.9 °F61 %29.81 in10.0 miESE (110°)15.0 mph20.7 mphMostly Cloudy
3:35 PM89.6 °F73.4 °F59 %29.83 in10.0 miEast (90°)16.1 mph20.7 mphScattered Clouds
3:54 PM88.0 °F75.0 °F65 %29.81 in7.0 miENE (70°)17.3 mph23.0 mph0.00 inRainLight Rain
4:04 PM84.2 °F75.2 °F74 %29.83 in7.0 miESE (110°)9.2 mph0.00 inRainLight Rain
4:54 PM87.1 °F75.0 °F67 %29.80 in10.0 miENE (70°)15.0 mph19.6 mph0.00 inScattered Clouds
5:54 PM86.0 °F75.0 °F70 %29.81 in10.0 miEast (80°)10.4 mphScattered Clouds
7:54 PM84.0 °F75.0 °F74 %29.85 in10.0 miEast (80°)6.9 mphMostly Cloudy
8:54 PM82.9 °F75.0 °F77 %29.88 in10.0 miEast (80°)8.1 mphScattered Clouds
9:54 PM82.0 °F77.0 °F85 %29.88 in9.0 miENE (70°)8.1 mph0.04 inScattered Clouds
10:54 PM82.9 °F75.9 °F79 %29.89 in10.0 miEast (80°)8.1 mphPartly Cloudy
11:54 PM82.0 °F75.9 °F82 %29.88 in10.0 miEast (80°)5.8 mphPartly Cloudy
Hourly data recorded from PGUM, located miles away from Asatdas, Guam







STORIES FROM OUR PARTNERS